Change the Weather History Date:

Wednesday, November 6, 2013

  Actual Average (KALS) Record (KALS)
Temperature  
Mean Temperature 28 °F 34 °F  
Max Temperature 42 °F 52 °F 67 °F (1945)
Min Temperature 14 °F 17 °F -1 °F (2008)
Degree Days  
Heating Degree Days 37 31  
Month to date heating degree days 177  
Since 1 July heating degree days 1287  
Cooling Degree Days 0 0  
Month to date cooling degree days 0  
Year to date cooling degree days 51  
Moisture  
Dew Point 9 °F    
Average Humidity 46    
Maximum Humidity 62    
Minimum Humidity 26    
Precipitation  
Precipitation 0.00 in 0.02 in 0.23 in (1938)
Month to date precipitation 0.11  
Year to date precipitation 6.65  
Snow  
Snow 0.00 in 0.10 in 4.00 in (1938)
Month to date snowfall 0.7  
Since 1 July snowfall 2.8  
Since 1 September snowfall 2.8  
Snow Depth -    
Sea Level Pressure  
Sea Level Pressure 30.37 in    
Wind  
Wind Speed 13 mph (NW)    
Max Wind Speed 28 mph    
Max Gust Speed 36 mph    
Visibility 10 miles    
Events      
T = Trace of Precipitation, MM = Missing Value Source: NWS Daily Summary

Daily Weather History Graph

Daily Weather History Graph

Search for Another Location

Airport or City:

Trip Planner

Search our weather history database for the weather conditions in past years. The results will help you decide how hot, cold, wet, or windy it might be!

Date:

Astronomy

Nov. 06, 2013 Rise Set
Actual Time 6:36 AM MST 4:59 PM MST
Civil Twilight 6:08 AM MST 5:27 PM MST
Nautical Twilight 5:37 AM MST 5:58 PM MST
Astronomical Twilight 5:06 AM MST 6:29 PM MST
Moon 9:52 AM MST (11/6) 8:08 PM MST (11/6)
Length of Visible Light 11h 19m
Length of Day
10h 23m
Waxing Crescent, 14% of the Moon is Illuminated
Nov 6
Waxing Crescent
Nov 9
First Quarter
Nov 17
Full
Nov 25
Last Quarter
Dec 2
New

Hourly Weather History & Observations

Time (MST) Temp. Windchill Dew Point Humidity Pressure Visibility Wind Dir Wind Speed Gust Speed Precip Events Conditions
12:11 AM 19.4 °F 2.8 °F 6.8 °F 58% 30.24 in 10.0 mi NNW 21.9 mph - N/A   Clear
12:32 AM 19.4 °F 4.1 °F 6.8 °F 58% 30.25 in 10.0 mi NNW 18.4 mph 29.9 mph N/A   Clear
12:52 AM 19.4 °F 5.0 °F 6.8 °F 58% 30.26 in 10.0 mi NNW 16.1 mph - N/A   Clear
1:12 AM 19.4 °F 6.6 °F 5.0 °F 54% 30.27 in 10.0 mi NNW 12.7 mph - N/A   Clear
1:32 AM 17.6 °F 5.0 °F 5.0 °F 58% 30.27 in 10.0 mi NNW 11.5 mph - N/A   Clear
1:52 AM 19.4 °F 6.0 °F 5.0 °F 54% 30.27 in 10.0 mi NNW 13.8 mph - N/A   Clear
2:12 AM 19.4 °F 6.0 °F 5.0 °F 54% 30.27 in 10.0 mi NNW 13.8 mph - N/A   Clear
2:32 AM 19.4 °F 6.6 °F 5.0 °F 54% 30.28 in 10.0 mi NNW 12.7 mph - N/A   Clear
2:52 AM 21.2 °F 8.3 °F 5.0 °F 50% 30.28 in 10.0 mi NNW 13.8 mph 20.7 mph N/A   Clear
3:12 AM 19.4 °F 8.6 °F 3.2 °F 49% 30.28 in 10.0 mi North 9.2 mph 16.1 mph N/A   Clear
3:32 AM 19.4 °F 7.9 °F 3.2 °F 49% 30.29 in 10.0 mi North 10.4 mph - N/A   Clear
3:52 AM 19.4 °F 7.2 °F 3.2 °F 49% 30.29 in 10.0 mi NNE 11.5 mph - N/A   Clear
4:12 AM 19.4 °F 7.9 °F 3.2 °F 49% 30.30 in 10.0 mi NNW 10.4 mph - N/A   Clear
4:31 AM 19.4 °F 8.6 °F 3.2 °F 49% 30.31 in 10.0 mi North 9.2 mph - N/A   Clear
4:52 AM 17.6 °F 5.0 °F 3.2 °F 53% 30.31 in 10.0 mi NNW 11.5 mph - N/A   Clear
5:12 AM 17.6 °F 5.7 °F 5.0 °F 58% 30.31 in 10.0 mi NW 10.4 mph - N/A   Clear
5:32 AM 15.8 °F 4.2 °F 3.2 °F 58% 30.32 in 10.0 mi NW 9.2 mph - N/A   Clear
5:52 AM 14.0 °F 2.9 °F 3.2 °F 62% 30.33 in 10.0 mi WNW 8.1 mph - N/A   Clear
6:12 AM 14.0 °F 2.9 °F 3.2 °F 62% 30.33 in 10.0 mi NW 8.1 mph - N/A   Clear
6:31 AM 14.0 °F 1.2 °F 3.2 °F 62% 30.34 in 10.0 mi NW 10.4 mph - N/A   Clear
6:52 AM 14.0 °F 2.0 °F 3.2 °F 62% 30.36 in 10.0 mi NNW 9.2 mph - N/A   Clear
7:12 AM 15.8 °F 3.4 °F 3.2 °F 58% 30.37 in 10.0 mi NNW 10.4 mph - N/A   Clear
7:32 AM 17.6 °F 7.3 °F 1.4 °F 49% 30.37 in 10.0 mi NW 8.1 mph - N/A   Clear
7:52 AM 19.4 °F 10.4 °F 1.4 °F 46% 30.38 in 10.0 mi NW 6.9 mph - N/A   Clear
8:12 AM 23.0 °F 15.8 °F 1.4 °F 39% 30.39 in 10.0 mi WNW 5.8 mph - N/A   Clear
8:32 AM 24.8 °F - 1.4 °F 36% 30.39 in 10.0 mi Calm Calm - N/A   Clear
8:52 AM 24.8 °F 19.1 °F 3.2 °F 40% 30.39 in 10.0 mi South 4.6 mph - N/A   Clear
9:12 AM 26.6 °F 19.1 °F 5.0 °F 40% 30.40 in 10.0 mi SSE 6.9 mph - N/A   Clear
9:32 AM 26.6 °F 20.0 °F 3.2 °F 37% 30.39 in 10.0 mi SSE 5.8 mph - N/A   Clear
9:52 AM 26.6 °F - 1.4 °F 34% 30.39 in 10.0 mi Calm Calm - N/A   Clear
10:12 AM 30.2 °F 25.4 °F 1.4 °F 29% 30.39 in 10.0 mi SSE 4.6 mph - N/A   Clear
10:32 AM 30.2 °F - 1.4 °F 29% 30.39 in 10.0 mi Calm Calm - N/A   Clear
10:52 AM 32.0 °F 26.4 °F 3.2 °F 30% 30.39 in 10.0 mi ESE 5.8 mph - N/A   Clear
11:12 AM 32.0 °F 26.4 °F 3.2 °F 30% 30.39 in 10.0 mi South 5.8 mph - N/A   Scattered Clouds
11:32 AM 35.6 °F 31.7 °F 3.2 °F 26% 30.38 in 10.0 mi South 4.6 mph - N/A   Overcast
11:51 AM 35.6 °F 31.7 °F 6.8 °F 30% 30.38 in 10.0 mi SW 4.6 mph - N/A   Overcast
12:12 PM 41.0 °F 30.7 °F 14.0 °F 33% 30.36 in 10.0 mi NW 25.3 mph 31.1 mph N/A   Mostly Cloudy
12:32 PM 41.0 °F 30.9 °F 15.8 °F 36% 30.36 in 10.0 mi NW 24.2 mph 32.2 mph N/A   Mostly Cloudy
12:51 PM 42.8 °F 33.5 °F 14.0 °F 31% 30.35 in 10.0 mi NNW 23.0 mph 33.4 mph N/A   Scattered Clouds
1:11 PM 41.0 °F 30.2 °F 15.8 °F 36% 30.34 in 10.0 mi NW 27.6 mph 35.7 mph N/A   Scattered Clouds
1:32 PM 41.0 °F 30.7 °F 15.8 °F 36% 30.34 in 10.0 mi NW 25.3 mph 33.4 mph N/A   Scattered Clouds
1:52 PM 42.8 °F 34.3 °F 15.8 °F 34% 30.35 in 10.0 mi NNW 19.6 mph 31.1 mph N/A   Clear
2:12 PM 42.8 °F 33.8 °F 14.0 °F 31% 30.35 in 10.0 mi NNW 21.9 mph 32.2 mph N/A   Clear
2:32 PM 42.8 °F 34.3 °F 14.0 °F 31% 30.35 in 10.0 mi NNW 19.6 mph 33.4 mph N/A   Clear
2:52 PM 41.0 °F 31.4 °F 14.0 °F 33% 30.35 in 10.0 mi NW 21.9 mph 32.2 mph N/A   Clear
3:11 PM 41.0 °F 31.1 °F 14.0 °F 33% 30.34 in 10.0 mi NW 23.0 mph 34.5 mph N/A   Clear
3:32 PM 41.0 °F 31.6 °F 14.0 °F 33% 30.36 in 10.0 mi NNW 20.7 mph 26.5 mph N/A   Clear
3:52 PM 41.0 °F 32.2 °F 14.0 °F 33% 30.36 in 10.0 mi NW 18.4 mph 24.2 mph N/A   Clear
4:12 PM 41.0 °F 32.5 °F 14.0 °F 33% 30.37 in 10.0 mi NW 17.3 mph 24.2 mph N/A   Clear
4:32 PM 39.2 °F 30.5 °F 14.0 °F 36% 30.38 in 10.0 mi NNW 16.1 mph 24.2 mph N/A   Clear
4:52 PM 37.4 °F 28.2 °F 14.0 °F 38% 30.38 in 10.0 mi NNW 16.1 mph 26.5 mph N/A   Clear
5:12 PM 35.6 °F 27.1 °F 14.0 °F 41% 30.38 in 10.0 mi NW 12.7 mph 17.3 mph N/A   Clear
5:32 PM 35.6 °F 27.5 °F 14.0 °F 41% 30.40 in 10.0 mi NNW 11.5 mph - N/A   Clear
5:52 PM 35.6 °F 29.9 °F 14.0 °F 41% 30.41 in 10.0 mi NNW 6.9 mph - N/A   Clear
6:12 PM 32.0 °F - 14.0 °F 48% 30.42 in 10.0 mi Calm Calm - N/A   Clear
6:32 PM 32.0 °F 28.7 °F 15.8 °F 51% 30.42 in 10.0 mi WNW 3.5 mph - N/A   Clear
6:52 PM 30.2 °F 21.9 °F 14.0 °F 51% 30.42 in 10.0 mi NW 9.2 mph - N/A   Clear
7:12 PM 30.2 °F 22.6 °F 14.0 °F 51% 30.43 in 10.0 mi NW 8.1 mph - N/A   Clear
7:32 PM 28.4 °F 21.2 °F 14.0 °F 55% 30.44 in 10.0 mi NNW 6.9 mph - N/A   Clear
7:52 PM 30.2 °F 22.6 °F 14.0 °F 51% 30.45 in 10.0 mi West 8.1 mph - N/A   Clear
8:12 PM 30.2 °F 21.9 °F 14.0 °F 51% 30.45 in 10.0 mi NW 9.2 mph - N/A   Clear
8:32 PM 30.2 °F 20.2 °F 14.0 °F 51% 30.45 in 10.0 mi NNW 12.7 mph - N/A   Clear
8:52 PM 30.2 °F 19.3 °F 14.0 °F 51% 30.45 in 10.0 mi NNW 15.0 mph - N/A   Clear
9:12 PM 30.2 °F 18.9 °F 14.0 °F 51% 30.45 in 10.0 mi NNW 16.1 mph - N/A   Clear
9:32 PM 28.4 °F 18.0 °F 14.0 °F 55% 30.46 in 10.0 mi NW 12.7 mph - N/A   Clear
9:52 PM 28.4 °F 16.6 °F 14.0 °F 55% 30.47 in 10.0 mi NW 16.1 mph - N/A   Clear
10:11 PM 28.4 °F 17.0 °F 14.0 °F 55% 30.47 in 10.0 mi NW 15.0 mph - N/A   Clear
10:32 PM 28.4 °F 17.0 °F 14.0 °F 55% 30.48 in 10.0 mi NW 15.0 mph - N/A   Clear
10:52 PM 28.4 °F 17.0 °F 14.0 °F 55% 30.48 in 10.0 mi NW 15.0 mph - N/A   Clear
11:11 PM 28.4 °F 16.6 °F 14.0 °F 55% 30.47 in 10.0 mi NW 16.1 mph - N/A   Clear
11:32 PM 28.4 °F 17.0 °F 14.0 °F 55% 30.48 in 10.0 mi NW 15.0 mph - N/A   Clear
11:52 PM 26.6 °F 14.7 °F 14.0 °F 59% 30.48 in 10.0 mi NNW 15.0 mph - N/A   Clear